Regional Weather Roundup
Issued by NWS Little Rock, AR

Home | Current Version | Previous Version | Graphics & Text | Print | Product List | Glossary On
Versions: 1 2 3 4 5 6 7 8 9 10 11 12 13 14 15 16 17 18 19 20 21 22 23 24 25 26 27 28 29 30 31 32 33 34 35 36 37 38 39 40 41 42 43 44 45 46 47 48 49 50
000
ASUS44 KLZK 111905
RWRLZK

WEATHER ROUNDUP FOR ARKANSAS
NATIONAL WEATHER SERVICE LITTLE ROCK AR
100 PM CST THU FEB 11 2016

NOTE: "FAIR" INDICATES FEW OR NO CLOUDS BELOW 12,000 FEET WITH NO
SIGNIFICANT WEATHER AND/OR OBSTRUCTIONS TO VISIBILITY.

ARZ001-003-010-029-112000-
NORTHWEST ARKANSAS

CITY           SKY/WX    TMP DP  RH WIND       PRES   REMARKS
FAYETTEVILLE   SUNNY     52  27  38 N6        30.15F
FORT SMITH     SUNNY     59  25  27 E7        30.14F
HARRISON       SUNNY     44  20  38 E9        30.18F
BENTONVILLE    SUNNY    N/A N/A N/A SE7       30.16F
ROGERS         SUNNY     48  22  35 E7        30.16F
SILOAM SPGS    SUNNY     52  25  35 E3        30.16F
HIGHFILL       SUNNY     52  25  35 E7        30.15F
SPRINGDALE     SUNNY     50  23  34 NE7       30.18F
$$

ARZ004-005-016-112000-
NORTH CENTRAL ARKANSAS

CITY           SKY/WX    TMP DP  RH WIND       PRES   REMARKS
BATESVILLE     SUNNY     46  19  34 NE10      30.22F
FLIPPIN        SUNNY     45  16  31 E6        30.19F
MTN HOME       SUNNY     44  16  32 E6        30.19F
$$

ARZ040-041-112000-
WEST CENTRAL ARKANSAS

CITY           SKY/WX    TMP DP  RH WIND       PRES   REMARKS
MENA           SUNNY     66  36  32 NE6       30.10F
MOUNT IDA      SUNNY     61  33  35 SE9       30.09F
$$

ARZ009-017-025-026-028-112000-
NORTHEAST ARKANSAS

CITY           SKY/WX    TMP DP  RH WIND       PRES   REMARKS
CORNING        FAIR      41  21  45 NE13G21   30.26S
JONESBORO      SUNNY     41  24  51 NE15      30.22F
NEWPORT        SUNNY     46  20  36 NE14G21   30.22F
WALNUT RIDGE   SUNNY     43  19  39 E14       30.24S
BLYTHEVILLE    SUNNY     47  23  38 NE17      30.22F
NW BLYTHEVILLE SUNNY     43  23  45 NE12G22   30.21F
$$

ARZ022-023-033-042-044-112000-
CENTRAL ARKANSAS

CITY           SKY/WX    TMP DP  RH WIND       PRES   REMARKS
LITTLE ROCK    MOSUNNY   51  25  36 NE12G20   30.18F
N LITTLE ROCK  MOSUNNY   50  26  39 NE15G22   30.18F
JACKSONVILLE   SUNNY     49  24  36 E14       30.16F
SEARCY         SUNNY     48  24  39 NE9       30.21S
HOT SPRINGS    SUNNY     54  29  38 NE10      30.14R
RUSSELLVILLE   SUNNY     52  24  33 E10       30.16F
CLINTON        FAIR      50  21  32 CALM      30.19S
$$

ARZ036-112000-
EAST ARKANSAS

CITY           SKY/WX    TMP DP  RH WIND       PRES   REMARKS
WEST MEMPHIS   SUNNY     49  24  37 NE14      30.16F
$$

ARZ050-053-066-070-073-112000-
SOUTHWEST ARKANSAS

CITY           SKY/WX    TMP DP  RH WIND       PRES   REMARKS
ARKADELPHIA    FAIR      59  35  40 E9        30.13F
CAMDEN         SUNNY     66  36  32 N6        30.10F
TEXARKANA      SUNNY     69  36  29 N5        30.08F
EL DORADO      SUNNY     70  37  29 NE5       30.08F
DE QUEEN       SUNNY     68  39  34 NE7       30.06F
$$

ARZ056-057-069-112000-
SOUTHEAST ARKANSAS

CITY           SKY/WX    TMP DP  RH WIND       PRES   REMARKS
PINE BLUFF     SUNNY     49  29  46 NE13      30.16F
STUTTGART      SUNNY     48  27  43 N10       30.17S
MONTICELLO     SUNNY     58  35  42 NE12      30.12S

$$





USA.gov is the U.S. government's official web portal to all federal, state and local government web resources and services.